This demonstration page uses our WeatherBlox Daily Observations layout. Learn more.

Left ArrowRight Arrow

39.29038, -76.61219

Hourly Observations for April 8, 2021

Temp ( °F °C ) Dew Point ( °F °C ) Humidity (%) Winds ( mph kmh ) Pressure ( in mb ) Visibility ( mi km ) Precip ( " mm )
12:54 am 00:54 Mostly Clear 57 13.9 39 3.9 51 51 ENE 9 15 30 1016 10 16.0934 0 0
1:54 am 01:54 Mostly Cloudy 56 13.3 42 5.6 60 60 E 6 9 30.01 1016 10 16.0934 0 0
2:54 am 02:54 Partly Cloudy 54 12.2 41 5 62 62 E 3 6 30.02 1017 10 16.0934 0 0
3:54 am 03:54 Mostly Cloudy 54 12.2 42 5.6 64 64 E 6 9 30.04 1017 10 16.0934 0 0
4:54 am 04:54 Mostly Cloudy 53 11.7 42 5.6 66 66 ENE 8 13 30.03 1017 10 16.0934 0 0
5:54 am 05:54 Mostly Cloudy 53 11.7 42 5.6 66 66 E 7 11 30.04 1017 10 16.0934 0 0
6:54 am 06:54 Partly Cloudy 52 11.1 41 5 66 66 ENE 7 11 30.07 1018 10 16.0934 0 0
7:54 am 07:54 Mostly Cloudy 54 12.2 41 5 62 62 ENE 8 13 30.09 1019 10 16.0934 0 0
8:54 am 08:54 Partly Cloudy 57 13.9 42 5.6 58 58 E 9 15 30.1 1019 10 16.0934 0 0
9:54 am 09:54 Partly Cloudy 61 16.1 42 5.6 50 50 E 9 15 30.09 1019 10 16.0934 0 0
10:54 am 10:54 Partly Cloudy 64 17.8 43 6.1 46 46 ESE 13 20 30.09 1019 10 16.0934 0 0
11:54 am 11:54 Partly Cloudy 67 19.4 44 6.7 44 44 ESE 17 28 30.09 1019 10 16.0934 0 0
12:54 pm 12:54 Partly Cloudy 68 20 44 6.7 42 42 SE 12 19 30.07 1018 10 16.0934 0 0
1:54 pm 13:54 Partly Cloudy 69 20.6 45 7.2 42 42 ESE 8 13 30.06 1018 10 16.0934 0 0
2:54 pm 14:54 Partly Cloudy 70 21.1 45 7.2 41 41 ESE 12 19 30.04 1017 10 16.0934 0 0
3:54 pm 15:54 Partly Cloudy 71 21.7 45 7.2 39 39 SE 12 19 30.02 1017 10 16.0934 0 0
4:54 pm 16:54 Mostly Sunny 71 21.7 44 6.7 38 38 ESE 10 17 30.01 1016 10 16.0934 0 0
5:54 pm 17:54 Mostly Cloudy 68 20 44 6.7 42 42 ESE 13 20 30.01 1016 10 16.0934 0 0
6:54 pm 18:54 Mostly Cloudy 66 18.9 45 7.2 47 47 SE 10 17 30.02 1017 10 16.0934 0 0
7:54 pm 19:54 Mostly Cloudy 63 17.2 46 7.8 54 54 SE 7 11 30.04 1017 10 16.0934 0 0
8:54 pm 20:54 Mostly Cloudy 60 15.6 47 8.3 62 62 SSE 6 9 30.05 1018 10 16.0934 0 0
9:54 pm 21:54 Partly Cloudy 59 15 47 8.3 64 64 SE 7 11 30.06 1018 10 16.0934 0 0
10:54 pm 22:54 Partly Cloudy 57 13.9 47 8.3 69 69 SE 8 13 30.07 1018 10 16.0934 0 0
11:54 pm 23:54 Mostly Cloudy 56 13.3 45 7.2 67 67 ESE 8 13 30.06 1018 10 16.0934 0 0

Powered by AerisWeather